sat.trackr.live / text

‹ back to catalog

STARLINK-2493

NORAD 48150 · 2021-027BL

PAYLOAD ACTIVE UNKNOWN

§ Identity

Operator
Country
US
Launch date
2021-04-07
Launch site
AFETR
Launch vehicle
Mass (kg)
RCS (m²)

Purposes: comms

External: N2YO · Heavens-Above · Gunter

§ Orbital elements

Epoch: 2026-09-19T19:51:44.579520Z

Period
94.01 min
Inclination
53.1598°
Eccentricity
0.0002005
Mean motion
15.31700230 rev/d
Perigee alt
469.4 km
Apogee alt
472.1 km
Semi-major
6,848.9 km
B*
-9.2652e-6
RAAN
329.2846°
Arg perigee
45.1628°
Mean anomaly
314.9537°
Rev number
30,243

§ Raw data

STARLINK-24931 48150U 21027BL  26262.82759930 -.00000653  00000+0 -92652-5 0  99952 48150  53.1598 329.2846 0002005  45.1628 314.9537 15.31700230302434

JSON: /api/v1/satellites/48150 · /tle

For live sub-satellite position, see the globe view (requires WebGL).

§ Visibility from observer

Set your observer location to see the next 7 days of passes ≥ 10°. The values pass through the URL so the page stays shareable.

No JS? Fill the form by hand. The geolocation button needs JavaScript.